Home > Weather > Santa Clarita > Past weeks

Flag for USA Past Weather in Santa Clarita, California, USA — Yesterday and Last 2 Weeks

Now
63 °F

Clear.


Feels Like: 63 °F
Forecast: 57 / 87 °F
Wind: 5 mph from East

Location: Van Nuys Airport

Current Time: May 30, 2016 at 10:55:05 PM

Latest Report: May 30, 2016 at 9:51 PM


Visibility: 10 mi

Pressure: 29.89 "Hg

Humidity: 70%

Dew Point: 53 °F

Location of Santa ClaritaLocation

Past Weather in Santa Clarita — Graph

°F

Santa Clarita Temperature Yesterday

Maximum temperature yesterday: 74 °F (at 2:51 PM)
Minimum temperature yesterday: 58 °F (at 12:58 AM)
Average temperature yesterday: 64 °F

High & Low Weather Summary for the Past Weeks

 TemperatureHumidityPressure
High80 °F (May 27, 2:51 PM)90% (May 18, 5:51 AM)30.07 "Hg (May 18, 5:51 AM)
Low51 °F (May 22, 5:51 AM)33% (May 22, 3:51 PM)29.77 "Hg (May 19, 5:51 PM)
Average63 °F65%29.92 "Hg
* Reported May 15 9:51 PM — May 30 9:51 PM, Santa Clarita, Weather by CustomWeather, © 2016

Note: Actual official high and low records may vary slightly from our data, if they occured in-between our weather recording intervals... More about our weather records

Advertising

Santa Clarita Weather History for the Previous 24 Hours

Scroll right to see more
 ConditionsComfort  
Time TempWeatherWind HumidityBarometerVisibility
9:51 PM
Mon, May 30
63 °FClear.5 mph70%29.89 "Hg10 mi
8:51 PM65 °FPassing clouds.5 mph66%29.88 "Hg10 mi
7:51 PM68 °FScattered clouds.8 mph59%29.88 "Hg10 mi
6:51 PM71 °FSunny.9 mph55%29.87 "Hg10 mi
5:51 PM75 °FPassing clouds.8 mph48%29.86 "Hg10 mi
4:51 PM76 °FSunny.9 mph47%29.87 "Hg10 mi
3:51 PM76 °FSunny.9 mph47%29.88 "Hg10 mi
2:51 PM76 °FSunny.13 mph47%29.90 "Hg10 mi
1:51 PM77 °FSunny.7 mph45%29.92 "Hg10 mi
12:51 PM74 °FSunny.7 mph48%29.94 "Hg10 mi
11:51 AM71 °FSunny.6 mph53%29.97 "Hg10 mi
10:51 AM67 °FScattered clouds.N/A61%29.98 "Hg10 mi
9:51 AM65 °FScattered clouds.No wind63%29.98 "Hg10 mi
8:51 AM61 °FScattered clouds.No wind75%30.00 "Hg10 mi
8:01 AM60 °FPartly sunny.No wind78%30.01 "Hg10 mi
7:51 AM58 °FScattered clouds.No wind81%30.00 "Hg10 mi
6:51 AM56 °FSunny.No wind87%29.99 "Hg9 mi
5:51 AM56 °FClear.3 mph84%29.98 "Hg10 mi
4:51 AM57 °FClear.5 mph83%29.97 "Hg10 mi
3:51 AM57 °FClear.5 mph81%29.96 "Hg10 mi
2:51 AM58 °FClear.3 mph75%29.96 "Hg10 mi
1:51 AM58 °FClear.No wind75%29.97 "Hg10 mi
12:51 AM60 °FClear.No wind69%29.98 "Hg10 mi
11:51 PM
Sun, May 29
60 °FClear.No wind69%29.98 "Hg10 mi
10:51 PM61 °FClear.5 mph67%29.98 "Hg10 mi
Weather by CustomWeather, © 2016

See weather overviewHow to use our weather pages